Weather History for Vancouver, WA

Change the Weather History Date:

Tuesday, March 19, 2013

  Actual Average Record
Temperature  
Mean Temperature 43 °F 49 °F  
Max Temperature 52 °F 58 °F 77 °F (1928)
Min Temperature 34 °F 40 °F 27 °F (1965)
Degree Days  
Heating Degree Days 22    
Month to date heating degree days 346  
Since 1 July heating degree days 3378  
Cooling Degree Days 0    
Month to date cooling degree days 0  
Year to date cooling degree days 0  
Moisture  
Dew Point 36 °F    
Average Humidity 71    
Maximum Humidity 92    
Minimum Humidity 50    
Precipitation  
Precipitation 0.58 in 0.13 in 0.86 in (1997)
Month to date precipitation 1.14 2.26  
Year to date precipitation 5.70 11.79  
Snow  
Snow 0.00 in - - ()
Month to date snowfall 0.0  
Snow Depth 0.00 in    
Sea Level Pressure  
Sea Level Pressure 29.94 in    
Wind  
Wind Speed 6 mph (SE)    
Max Wind Speed 17 mph    
Max Gust Speed 21 mph    
Visibility 9 miles    
Events Rain    
T = Trace of Precipitation, MM = Missing Value Source: NWS Daily Summary

Daily Weather History Graph

Daily Weather History Graph

Search for Another Location

Airport:

Trip Planner

Search our weather history database for the weather conditions in past years. The results will help you decide how hot, cold, wet, or windy it might be!

Date:

Astronomy

Mar. 19, 2013 Rise Set
Actual Time 7:14 AM PDT 7:22 PM PDT
Civil Twilight 6:45 AM PDT 7:51 PM PDT
Nautical Twilight 6:10 AM PDT 8:26 PM PDT
Astronomical Twilight 5:35 AM PDT 9:02 PM PDT
Moon 11:53 AM PDT (3/19) 2:29 AM PDT (3/19)
Length of Visible Light 13h 06m
Length of Day
12h 07m
Waxing Crescent, 51% of the Moon is Illuminated
Mar 19
Waxing Crescent
Mar 27
Full
Apr 2
Last Quarter
Apr 10
New
Apr 18
First Quarter

Hourly Weather History & Observations

Time (PDT) Temp. Windchill Dew Point Humidity Pressure Visibility Wind Dir Wind Speed Gust Speed Precip Events Conditions
12:53 AM 34.0 °F - 30.9 °F 89% 30.16 in 10.0 mi Calm Calm - N/A   Clear
1:53 AM 37.0 °F - 34.0 °F 89% 30.14 in 10.0 mi Calm Calm - N/A   Clear
2:53 AM 36.0 °F - 33.1 °F 89% 30.12 in 10.0 mi Calm Calm - N/A   Clear
3:53 AM 37.0 °F - 34.0 °F 89% 30.11 in 10.0 mi Calm Calm - N/A   Clear
4:53 AM 36.0 °F - 33.1 °F 89% 30.09 in 10.0 mi Calm Calm - N/A   Clear
5:53 AM 36.0 °F - 33.1 °F 89% 30.08 in 10.0 mi Calm Calm - N/A   Clear
6:53 AM 37.0 °F - 33.1 °F 86% 30.07 in 10.0 mi Calm Calm - N/A   Clear
7:53 AM 39.0 °F - 35.1 °F 86% 30.07 in 10.0 mi Calm Calm - N/A   Scattered Clouds
8:53 AM 41.0 °F - 36.0 °F 82% 30.07 in 10.0 mi Calm Calm - N/A   Scattered Clouds
9:53 AM 44.1 °F 42.5 °F 33.1 °F 65% 30.05 in 10.0 mi East 3.5 mph - N/A   Overcast
10:53 AM 46.9 °F - 33.1 °F 59% 30.03 in 10.0 mi Calm Calm - N/A   Overcast
11:53 AM 50.0 °F - 33.1 °F 52% 30.02 in 10.0 mi ESE 6.9 mph - N/A   Overcast
12:53 PM 51.1 °F - 34.0 °F 52% 30.00 in 10.0 mi SE 8.1 mph - N/A   Overcast
1:53 PM 50.0 °F - 37.0 °F 61% 29.97 in 10.0 mi ESE 9.2 mph - 0.01 in Rain Light Rain
2:53 PM 52.0 °F - 37.0 °F 57% 29.93 in 10.0 mi SE 10.4 mph - 0.00 in   Overcast
3:53 PM 50.0 °F - 37.9 °F 63% 29.91 in 10.0 mi ESE 9.2 mph - 0.01 in Rain Light Rain
5:53 PM 46.0 °F 41.4 °F 39.9 °F 79% 29.86 in 10.0 mi SE 9.2 mph - 0.08 in Rain Light Rain
6:53 PM 44.1 °F 38.6 °F 39.9 °F 85% 29.81 in 7.0 mi ESE 10.4 mph - 0.08 in Rain Light Rain
7:53 PM 44.1 °F 40.8 °F 39.9 °F 85% 29.78 in 10.0 mi SE 5.8 mph - 0.08 in Rain Light Rain
8:46 PM 44.6 °F 41.4 °F 39.2 °F 81% 29.75 in 10.0 mi SE 5.8 mph - 0.02 in Rain Light Rain
8:53 PM 44.1 °F 38.6 °F 39.9 °F 85% 29.75 in 10.0 mi SE 10.4 mph - 0.02 in Rain Light Rain
9:53 PM 44.1 °F 39.0 °F 41.0 °F 89% 29.72 in 9.0 mi SE 9.2 mph - 0.05 in Rain Light Rain
10:53 PM 44.1 °F 37.4 °F 41.0 °F 89% 29.69 in 9.0 mi ESE 13.8 mph 19.6 mph 0.04 in Rain Light Rain
11:14 PM 44.6 °F 40.2 °F 41.0 °F 87% 29.69 in 5.0 mi SE 8.1 mph - 0.04 in Rain Rain
11:53 PM 45.0 °F 38.9 °F 41.0 °F 86% 29.68 in 6.0 mi ESE 12.7 mph 18.4 mph 0.18 in Rain Light Rain